owner,sensor,date,latitude,longitude,vertical_datum,wind_speed,wind_to_direction,wind_speed_of_gust,qcFlag 
DISL,ioos:station:DISL:BSCA:1,2017-11-01T00:00:00Z,30.3288,-87.8293,0.0,0.6,184.0,99.0,'11111222,11111222,11144222' 
DISL,ioos:station:DISL:BSCA:1,2017-11-01T00:30:00Z,30.3288,-87.8293,0.0,0.9,182.0,99.0,'11111222,11111222,11144222' 
DISL,ioos:station:DISL:BSCA:1,2017-11-01T01:00:00Z,30.3288,-87.8293,0.0,0.9,176.0,99.0,'11111222,11111222,11144222' 
DISL,ioos:station:DISL:BSCA:1,2017-11-01T01:30:00Z,30.3288,-87.8293,0.0,0.9,174.0,99.0,'11111222,11111222,11144222' 
DISL,ioos:station:DISL:BSCA:1,2017-11-01T02:00:00Z,30.3288,-87.8293,0.0,0.5,153.0,99.0,'11111222,11111222,11144222' 
DISL,ioos:station:DISL:BSCA:1,2017-11-01T02:30:00Z,30.3288,-87.8293,0.0,0.2,142.0,99.0,'11111222,11111222,11144222' 
DISL,ioos:station:DISL:BSCA:1,2017-11-01T03:00:00Z,30.3288,-87.8293,0.0,0.8,163.0,99.0,'11111222,11111222,11144222' 
DISL,ioos:station:DISL:BSCA:1,2017-11-01T03:30:00Z,30.3288,-87.8293,0.0,0.5,164.0,99.0,'11111222,11111222,11144222' 
DISL,ioos:station:DISL:BSCA:1,2017-11-01T04:00:00Z,30.3288,-87.8293,0.0,0.5,149.0,99.0,'11111222,11111222,11144222' 
DISL,ioos:station:DISL:BSCA:1,2017-11-01T04:30:00Z,30.3288,-87.8293,0.0,0.1,156.0,99.0,'11111222,11111222,11144222' 
DISL,ioos:station:DISL:BSCA:1,2017-11-01T05:00:00Z,30.3288,-87.8293,0.0,0.2,154.0,99.0,'11111222,11111222,11144222' 
DISL,ioos:station:DISL:BSCA:1,2017-11-01T05:30:00Z,30.3288,-87.8293,0.0,0.5,160.0,99.0,'11111222,11111222,11144222' 
DISL,ioos:station:DISL:BSCA:1,2017-11-01T06:00:00Z,30.3288,-87.8293,0.0,0.4,155.0,99.0,'11111222,11111222,11144222' 
DISL,ioos:station:DISL:BSCA:1,2017-11-01T06:30:00Z,30.3288,-87.8293,0.0,0.1,158.0,99.0,'11111222,11111222,11144222' 
DISL,ioos:station:DISL:BSCA:1,2017-11-01T07:00:00Z,30.3288,-87.8293,0.0,0.2,158.0,99.0,'11111222,11111222,11144222' 
DISL,ioos:station:DISL:BSCA:1,2017-11-01T07:30:00Z,30.3288,-87.8293,0.0,0.1,121.0,99.0,'11111222,11111222,11144222' 
DISL,ioos:station:DISL:BSCA:1,2017-11-01T08:00:00Z,30.3288,-87.8293,0.0,0.4,112.0,99.0,'11111222,11111222,11144222' 
DISL,ioos:station:DISL:BSCA:1,2017-11-01T08:30:00Z,30.3288,-87.8293,0.0,1.0,107.0,99.0,'11111222,11111222,11144222' 
DISL,ioos:station:DISL:BSCA:1,2017-11-01T09:00:00Z,30.3288,-87.8293,0.0,0.4,121.0,99.0,'11111222,11111222,11144222' 
DISL,ioos:station:DISL:BSCA:1,2017-11-01T09:30:00Z,30.3288,-87.8293,0.0,1.9,100.0,99.0,'11111222,11111222,11144222' 
DISL,ioos:station:DISL:BSCA:1,2017-11-01T10:00:00Z,30.3288,-87.8293,0.0,1.4,107.0,99.0,'11111222,11111222,11144222' 
DISL,ioos:station:DISL:BSCA:1,2017-11-01T10:30:00Z,30.3288,-87.8293,0.0,1.7,75.0,99.0,'11111222,11111222,11144222' 
DISL,ioos:station:DISL:BSCA:1,2017-11-01T11:00:00Z,30.3288,-87.8293,0.0,2.0,85.0,99.0,'11111222,11111222,11144222' 
DISL,ioos:station:DISL:BSCA:1,2017-11-01T11:30:00Z,30.3288,-87.8293,0.0,2.5,88.0,99.0,'11111222,11111222,11144222' 
DISL,ioos:station:DISL:BSCA:1,2017-11-01T12:00:00Z,30.3288,-87.8293,0.0,3.7,56.0,99.0,'11111222,11111222,11144222' 
DISL,ioos:station:DISL:BSCA:1,2017-11-01T12:30:00Z,30.3288,-87.8293,0.0,3.2,50.0,99.0,'11111222,11111222,11144222' 
DISL,ioos:station:DISL:BSCA:1,2017-11-01T13:00:00Z,30.3288,-87.8293,0.0,3.2,68.0,99.0,'11111222,11111222,11144222' 
DISL,ioos:station:DISL:BSCA:1,2017-11-01T13:30:00Z,30.3288,-87.8293,0.0,2.8,59.0,99.0,'11111222,11111222,11144222' 
DISL,ioos:station:DISL:BSCA:1,2017-11-01T14:00:00Z,30.3288,-87.8293,0.0,3.3,75.0,99.0,'11111222,11111222,11144222' 
DISL,ioos:station:DISL:BSCA:1,2017-11-01T14:30:00Z,30.3288,-87.8293,0.0,4.9,113.0,99.0,'11111222,11111222,11144222' 
DISL,ioos:station:DISL:BSCA:1,2017-11-01T15:00:00Z,30.3288,-87.8293,0.0,5.8,122.0,99.0,'11111222,11111222,11144222' 
DISL,ioos:station:DISL:BSCA:1,2017-11-01T15:30:00Z,30.3288,-87.8293,0.0,5.9,114.0,99.0,'11111222,11111222,11144222' 
DISL,ioos:station:DISL:BSCA:1,2017-11-01T16:00:00Z,30.3288,-87.8293,0.0,5.5,119.0,99.0,'11111222,11111222,11144222' 
DISL,ioos:station:DISL:BSCA:1,2017-11-01T16:30:00Z,30.3288,-87.8293,0.0,6.4,117.0,99.0,'11111222,11111222,11144222' 
DISL,ioos:station:DISL:BSCA:1,2017-11-01T17:00:00Z,30.3288,-87.8293,0.0,6.6,118.0,99.0,'11111222,11111222,11144222' 
DISL,ioos:station:DISL:BSCA:1,2017-11-01T17:30:00Z,30.3288,-87.8293,0.0,5.9,124.0,99.0,'11111222,11111222,11144222' 
DISL,ioos:station:DISL:BSCA:1,2017-11-01T18:00:00Z,30.3288,-87.8293,0.0,5.6,121.0,99.0,'11111222,11111222,11144222' 
DISL,ioos:station:DISL:BSCA:1,2017-11-01T18:30:00Z,30.3288,-87.8293,0.0,5.6,126.0,99.0,'11111222,11111222,11144222' 
DISL,ioos:station:DISL:BSCA:1,2017-11-01T19:00:00Z,30.3288,-87.8293,0.0,5.0,128.0,99.0,'11111222,11111222,11144222' 
DISL,ioos:station:DISL:BSCA:1,2017-11-01T19:30:00Z,30.3288,-87.8293,0.0,4.9,128.0,99.0,'11111222,11111222,11144222' 
DISL,ioos:station:DISL:BSCA:1,2017-11-01T20:00:00Z,30.3288,-87.8293,0.0,5.1,125.0,99.0,'11111222,11111222,11144222' 
DISL,ioos:station:DISL:BSCA:1,2017-11-01T20:30:00Z,30.3288,-87.8293,0.0,5.4,124.0,99.0,'11111222,11111222,11144222' 
DISL,ioos:station:DISL:BSCA:1,2017-11-01T21:00:00Z,30.3288,-87.8293,0.0,5.1,124.0,99.0,'11111222,11111222,11144222' 
DISL,ioos:station:DISL:BSCA:1,2017-11-01T21:30:00Z,30.3288,-87.8293,0.0,5.0,124.0,99.0,'11111222,11111222,11144222' 
DISL,ioos:station:DISL:BSCA:1,2017-11-01T22:00:00Z,30.3288,-87.8293,0.0,3.8,141.0,99.0,'11111222,11111222,11144222' 
DISL,ioos:station:DISL:BSCA:1,2017-11-01T22:30:00Z,30.3288,-87.8293,0.0,3.3,143.0,99.0,'11111222,11111222,11144222' 
DISL,ioos:station:DISL:BSCA:1,2017-11-01T23:00:00Z,30.3288,-87.8293,0.0,4.3,142.0,99.0,'11111222,11111222,11144222' 
DISL,ioos:station:DISL:BSCA:1,2017-11-01T23:30:00Z,30.3288,-87.8293,0.0,3.8,143.0,99.0,'11111222,11111222,11144222' 
DISL,ioos:station:DISL:BSCA:1,2017-11-02T00:00:00Z,30.3288,-87.8293,0.0,3.7,137.0,99.0,'11111222,11111222,11144222' 
DISL,ioos:station:DISL:BSCA:1,2017-11-02T00:30:00Z,30.3288,-87.8293,0.0,4.2,135.0,99.0,'11111222,11111222,11144222' 
DISL,ioos:station:DISL:BSCA:1,2017-11-02T01:00:00Z,30.3288,-87.8293,0.0,4.2,131.0,99.0,'11111222,11111222,11144222' 
DISL,ioos:station:DISL:BSCA:1,2017-11-02T01:30:00Z,30.3288,-87.8293,0.0,4.7,138.0,99.0,'11111222,11111222,11144222' 
DISL,ioos:station:DISL:BSCA:1,2017-11-02T02:00:00Z,30.3288,-87.8293,0.0,5.9,136.0,99.0,'11111222,11111222,11144222' 
DISL,ioos:station:DISL:BSCA:1,2017-11-02T02:30:00Z,30.3288,-87.8293,0.0,4.4,153.0,99.0,'11111222,11111222,11144222' 
DISL,ioos:station:DISL:BSCA:1,2017-11-02T03:00:00Z,30.3288,-87.8293,0.0,5.1,152.0,99.0,'11111222,11111222,11144222' 
DISL,ioos:station:DISL:BSCA:1,2017-11-02T03:30:00Z,30.3288,-87.8293,0.0,5.8,152.0,99.0,'11111222,11111222,11144222' 
DISL,ioos:station:DISL:BSCA:1,2017-11-02T04:00:00Z,30.3288,-87.8293,0.0,6.2,147.0,99.0,'11111222,11111222,11144222' 
DISL,ioos:station:DISL:BSCA:1,2017-11-02T04:30:00Z,30.3288,-87.8293,0.0,4.3,159.0,99.0,'11111222,11111222,11144222' 
DISL,ioos:station:DISL:BSCA:1,2017-11-02T05:00:00Z,30.3288,-87.8293,0.0,4.9,160.0,99.0,'11111222,11111222,11144222' 
DISL,ioos:station:DISL:BSCA:1,2017-11-02T05:30:00Z,30.3288,-87.8293,0.0,4.5,149.0,99.0,'11111222,11111222,11144222' 
DISL,ioos:station:DISL:BSCA:1,2017-11-02T06:00:00Z,30.3288,-87.8293,0.0,4.0,152.0,99.0,'11111222,11111222,11144222' 
DISL,ioos:station:DISL:BSCA:1,2017-11-02T06:30:00Z,30.3288,-87.8293,0.0,4.1,154.0,99.0,'11111222,11111222,11144222' 
DISL,ioos:station:DISL:BSCA:1,2017-11-02T07:00:00Z,30.3288,-87.8293,0.0,3.5,160.0,99.0,'11111222,11111222,11144222' 
DISL,ioos:station:DISL:BSCA:1,2017-11-02T07:30:00Z,30.3288,-87.8293,0.0,2.7,164.0,99.0,'11111222,11111222,11144222' 
DISL,ioos:station:DISL:BSCA:1,2017-11-02T08:00:00Z,30.3288,-87.8293,0.0,1.3,126.0,99.0,'11111222,11111222,11144222' 
DISL,ioos:station:DISL:BSCA:1,2017-11-02T08:30:00Z,30.3288,-87.8293,0.0,1.0,90.0,99.0,'11111222,11111222,11144222' 
DISL,ioos:station:DISL:BSCA:1,2017-11-02T09:00:00Z,30.3288,-87.8293,0.0,0.1,38.0,99.0,'11111222,11111222,11144222' 
DISL,ioos:station:DISL:BSCA:1,2017-11-02T09:30:00Z,30.3288,-87.8293,0.0,0.0,0.0,99.0,'11111222,11111222,11144222' 
DISL,ioos:station:DISL:BSCA:1,2017-11-02T10:00:00Z,30.3288,-87.8293,0.0,0.6,37.0,99.0,'11111222,11111222,11144222' 
DISL,ioos:station:DISL:BSCA:1,2017-11-02T10:30:00Z,30.3288,-87.8293,0.0,2.7,29.0,99.0,'11111222,11111222,11144222' 
DISL,ioos:station:DISL:BSCA:1,2017-11-02T11:00:00Z,30.3288,-87.8293,0.0,2.6,40.0,99.0,'11111222,11111222,11144222' 
DISL,ioos:station:DISL:BSCA:1,2017-11-02T11:30:00Z,30.3288,-87.8293,0.0,1.7,31.0,99.0,'11111222,11111222,11144222' 
DISL,ioos:station:DISL:BSCA:1,2017-11-02T12:00:00Z,30.3288,-87.8293,0.0,2.1,44.0,99.0,'11111222,11111222,11144222' 
DISL,ioos:station:DISL:BSCA:1,2017-11-02T12:30:00Z,30.3288,-87.8293,0.0,1.6,31.0,99.0,'11111222,11111222,11144222' 
DISL,ioos:station:DISL:BSCA:1,2017-11-02T13:00:00Z,30.3288,-87.8293,0.0,1.5,47.0,99.0,'11111222,11111222,11144222' 
DISL,ioos:station:DISL:BSCA:1,2017-11-02T13:30:00Z,30.3288,-87.8293,0.0,0.2,48.0,99.0,'11111222,11111222,11144222' 
DISL,ioos:station:DISL:BSCA:1,2017-11-02T14:00:00Z,30.3288,-87.8293,0.0,0.1,61.0,99.0,'11111222,11111222,11144222' 
DISL,ioos:station:DISL:BSCA:1,2017-11-02T14:30:00Z,30.3288,-87.8293,0.0,0.0,0.0,99.0,'11111222,11111222,11144222' 
DISL,ioos:station:DISL:BSCA:1,2017-11-02T15:00:00Z,30.3288,-87.8293,0.0,0.0,0.0,99.0,'11111222,11111222,11144222' 
DISL,ioos:station:DISL:BSCA:1,2017-11-02T15:30:00Z,30.3288,-87.8293,0.0,0.0,0.0,99.0,'11111222,11111222,11144222' 
DISL,ioos:station:DISL:BSCA:1,2017-11-02T16:00:00Z,30.3288,-87.8293,0.0,0.9,108.0,99.0,'11111222,11111222,11144222' 
DISL,ioos:station:DISL:BSCA:1,2017-11-02T16:30:00Z,30.3288,-87.8293,0.0,0.0,0.0,99.0,'11111222,11111222,11144222' 
DISL,ioos:station:DISL:BSCA:1,2017-11-02T17:00:00Z,30.3288,-87.8293,0.0,0.0,0.0,99.0,'11111222,11111222,11144222' 
DISL,ioos:station:DISL:BSCA:1,2017-11-02T17:30:00Z,30.3288,-87.8293,0.0,1.9,165.0,99.0,'11111222,11111222,11144222' 
DISL,ioos:station:DISL:BSCA:1,2017-11-02T18:00:00Z,30.3288,-87.8293,0.0,3.1,166.0,99.0,'11111222,11111222,11144222' 
DISL,ioos:station:DISL:BSCA:1,2017-11-02T18:30:00Z,30.3288,-87.8293,0.0,2.9,167.0,99.0,'11111222,11111222,11144222' 
DISL,ioos:station:DISL:BSCA:1,2017-11-02T19:00:00Z,30.3288,-87.8293,0.0,2.2,128.0,99.0,'11111222,11111222,11144222' 
DISL,ioos:station:DISL:BSCA:1,2017-11-02T19:30:00Z,30.3288,-87.8293,0.0,2.2,134.0,99.0,'11111222,11111222,11144222' 
DISL,ioos:station:DISL:BSCA:1,2017-11-02T20:00:00Z,30.3288,-87.8293,0.0,4.3,129.0,99.0,'11111222,11111222,11144222' 
DISL,ioos:station:DISL:BSCA:1,2017-11-02T20:30:00Z,30.3288,-87.8293,0.0,0.1,132.0,99.0,'11111222,11111222,11144222' 
DISL,ioos:station:DISL:BSCA:1,2017-11-02T21:00:00Z,30.3288,-87.8293,0.0,0.1,148.0,99.0,'11111222,11111222,11144222' 
DISL,ioos:station:DISL:BSCA:1,2017-11-02T21:30:00Z,30.3288,-87.8293,0.0,0.0,0.0,99.0,'11111222,11111222,11144222' 
DISL,ioos:station:DISL:BSCA:1,2017-11-02T22:00:00Z,30.3288,-87.8293,0.0,0.0,0.0,99.0,'11111222,11111222,11144222' 
DISL,ioos:station:DISL:BSCA:1,2017-11-02T22:30:00Z,30.3288,-87.8293,0.0,0.0,0.0,99.0,'11111222,11111222,11144222' 
DISL,ioos:station:DISL:BSCA:1,2017-11-02T23:00:00Z,30.3288,-87.8293,0.0,0.0,0.0,99.0,'11111222,11111222,11144222' 
DISL,ioos:station:DISL:BSCA:1,2017-11-02T23:30:00Z,30.3288,-87.8293,0.0,0.0,0.0,99.0,'11111222,11111222,11144222' 
DISL,ioos:station:DISL:BSCA:1,2017-11-03T00:00:00Z,30.3288,-87.8293,0.0,0.0,0.0,99.0,'11111222,11111222,11144222' 
DISL,ioos:station:DISL:BSCA:1,2017-11-03T00:30:00Z,30.3288,-87.8293,0.0,0.0,0.0,99.0,'11111222,11111222,11144222' 
DISL,ioos:station:DISL:BSCA:1,2017-11-03T01:00:00Z,30.3288,-87.8293,0.0,0.0,0.0,99.0,'11111222,11111222,11144222' 
DISL,ioos:station:DISL:BSCA:1,2017-11-03T01:30:00Z,30.3288,-87.8293,0.0,0.0,124.0,99.0,'11111222,11111222,11144222' 
DISL,ioos:station:DISL:BSCA:1,2017-11-03T02:00:00Z,30.3288,-87.8293,0.0,0.0,0.0,99.0,'11111222,11111222,11144222' 
DISL,ioos:station:DISL:BSCA:1,2017-11-03T02:30:00Z,30.3288,-87.8293,0.0,0.0,0.0,99.0,'11111222,11111222,11144222' 
DISL,ioos:station:DISL:BSCA:1,2017-11-03T03:00:00Z,30.3288,-87.8293,0.0,0.0,119.0,99.0,'11111222,11111222,11144222' 
DISL,ioos:station:DISL:BSCA:1,2017-11-03T03:30:00Z,30.3288,-87.8293,0.0,0.0,0.0,99.0,'11111222,11111222,11144222' 
DISL,ioos:station:DISL:BSCA:1,2017-11-03T04:00:00Z,30.3288,-87.8293,0.0,0.9,60.0,99.0,'11111222,11111222,11144222' 
DISL,ioos:station:DISL:BSCA:1,2017-11-03T04:30:00Z,30.3288,-87.8293,0.0,0.9,70.0,99.0,'11111222,11111222,11144222' 
DISL,ioos:station:DISL:BSCA:1,2017-11-03T05:00:00Z,30.3288,-87.8293,0.0,0.2,54.0,99.0,'11111222,11111222,11144222' 
DISL,ioos:station:DISL:BSCA:1,2017-11-03T05:30:00Z,30.3288,-87.8293,0.0,1.9,82.0,99.0,'11111222,11111222,11144222' 
DISL,ioos:station:DISL:BSCA:1,2017-11-03T06:00:00Z,30.3288,-87.8293,0.0,0.0,0.0,99.0,'11111222,11111222,11144222' 
DISL,ioos:station:DISL:BSCA:1,2017-11-03T07:00:00Z,30.3288,-87.8293,0.0,0.0,0.0,99.0,'11111222,11111222,11144222' 
DISL,ioos:station:DISL:BSCA:1,2017-11-03T07:30:00Z,30.3288,-87.8293,0.0,0.0,0.0,99.0,'11111222,11111222,11144222' 
DISL,ioos:station:DISL:BSCA:1,2017-11-03T08:00:00Z,30.3288,-87.8293,0.0,0.1,46.0,99.0,'11111222,11111222,11144222' 
DISL,ioos:station:DISL:BSCA:1,2017-11-03T08:30:00Z,30.3288,-87.8293,0.0,1.1,93.0,99.0,'11111222,11111222,11144222' 
DISL,ioos:station:DISL:BSCA:1,2017-11-03T09:00:00Z,30.3288,-87.8293,0.0,0.0,17.0,99.0,'11111222,11111222,11144222' 
DISL,ioos:station:DISL:BSCA:1,2017-11-03T09:30:00Z,30.3288,-87.8293,0.0,0.0,0.0,99.0,'11111222,11111222,11144222' 
DISL,ioos:station:DISL:BSCA:1,2017-11-03T10:00:00Z,30.3288,-87.8293,0.0,0.0,16.0,99.0,'11111222,11111222,11144222' 
DISL,ioos:station:DISL:BSCA:1,2017-11-03T10:30:00Z,30.3288,-87.8293,0.0,0.4,41.0,99.0,'11111222,11111222,11144222' 
DISL,ioos:station:DISL:BSCA:1,2017-11-03T11:00:00Z,30.3288,-87.8293,0.0,0.0,0.0,99.0,'11111222,11111222,11144222' 
DISL,ioos:station:DISL:BSCA:1,2017-11-03T11:30:00Z,30.3288,-87.8293,0.0,0.0,0.0,99.0,'11111222,11111222,11144222' 
DISL,ioos:station:DISL:BSCA:1,2017-11-03T12:00:00Z,30.3288,-87.8293,0.0,0.4,37.0,99.0,'11111222,11111222,11144222' 
DISL,ioos:station:DISL:BSCA:1,2017-11-03T12:30:00Z,30.3288,-87.8293,0.0,0.0,0.0,99.0,'11111222,11111222,11144222' 
DISL,ioos:station:DISL:BSCA:1,2017-11-03T13:00:00Z,30.3288,-87.8293,0.0,0.0,44.0,99.0,'11111222,11111222,11144222' 
DISL,ioos:station:DISL:BSCA:1,2017-11-03T13:30:00Z,30.3288,-87.8293,0.0,0.0,0.0,99.0,'11111222,11111222,11144222' 
DISL,ioos:station:DISL:BSCA:1,2017-11-03T14:00:00Z,30.3288,-87.8293,0.0,1.2,60.0,99.0,'11111222,11111222,11144222' 
DISL,ioos:station:DISL:BSCA:1,2017-11-03T14:30:00Z,30.3288,-87.8293,0.0,0.0,76.0,99.0,'11111222,11111222,11144222' 
DISL,ioos:station:DISL:BSCA:1,2017-11-03T15:00:00Z,30.3288,-87.8293,0.0,0.1,117.0,99.0,'11111222,11111222,11144222' 
DISL,ioos:station:DISL:BSCA:1,2017-11-03T15:30:00Z,30.3288,-87.8293,0.0,0.0,181.0,99.0,'11111222,11111222,11144222' 
DISL,ioos:station:DISL:BSCA:1,2017-11-03T16:00:00Z,30.3288,-87.8293,0.0,0.0,145.0,99.0,'11111222,11111222,11144222' 
DISL,ioos:station:DISL:BSCA:1,2017-11-03T16:30:00Z,30.3288,-87.8293,0.0,0.3,135.0,99.0,'11111222,11111222,11144222' 
DISL,ioos:station:DISL:BSCA:1,2017-11-03T17:00:00Z,30.3288,-87.8293,0.0,0.0,146.0,99.0,'11111222,11111222,11144222' 
DISL,ioos:station:DISL:BSCA:1,2017-11-03T17:30:00Z,30.3288,-87.8293,0.0,2.5,141.0,99.0,'11111222,11111222,11144222' 
DISL,ioos:station:DISL:BSCA:1,2017-11-03T18:00:00Z,30.3288,-87.8293,0.0,2.6,156.0,99.0,'11111222,11111222,11144222' 
DISL,ioos:station:DISL:BSCA:1,2017-11-03T18:30:00Z,30.3288,-87.8293,0.0,1.6,151.0,99.0,'11111222,11111222,11144222' 
DISL,ioos:station:DISL:BSCA:1,2017-11-03T19:00:00Z,30.3288,-87.8293,0.0,1.7,148.0,99.0,'11111222,11111222,11144222' 
DISL,ioos:station:DISL:BSCA:1,2017-11-03T19:30:00Z,30.3288,-87.8293,0.0,1.4,151.0,99.0,'11111222,11111222,11144222' 
DISL,ioos:station:DISL:BSCA:1,2017-11-03T20:00:00Z,30.3288,-87.8293,0.0,1.6,139.0,99.0,'11111222,11111222,11144222' 
DISL,ioos:station:DISL:BSCA:1,2017-11-03T20:30:00Z,30.3288,-87.8293,0.0,2.1,132.0,99.0,'11111222,11111222,11144222' 
DISL,ioos:station:DISL:BSCA:1,2017-11-03T21:00:00Z,30.3288,-87.8293,0.0,2.6,130.0,99.0,'11111222,11111222,11144222' 
DISL,ioos:station:DISL:BSCA:1,2017-11-03T21:30:00Z,30.3288,-87.8293,0.0,1.7,141.0,99.0,'11111222,11111222,11144222' 
DISL,ioos:station:DISL:BSCA:1,2017-11-03T22:00:00Z,30.3288,-87.8293,0.0,0.9,138.0,99.0,'11111222,11111222,11144222' 
DISL,ioos:station:DISL:BSCA:1,2017-11-03T22:30:00Z,30.3288,-87.8293,0.0,0.8,169.0,99.0,'11111222,11111222,11144222' 
DISL,ioos:station:DISL:BSCA:1,2017-11-03T23:00:00Z,30.3288,-87.8293,0.0,0.5,173.0,99.0,'11111222,11111222,11144222' 
DISL,ioos:station:DISL:BSCA:1,2017-11-03T23:30:00Z,30.3288,-87.8293,0.0,0.0,0.0,99.0,'11111222,11111222,11144222' 
DISL,ioos:station:DISL:BSCA:1,2017-11-04T00:00:00Z,30.3288,-87.8293,0.0,0.0,0.0,99.0,'11111222,11111222,11144222' 
DISL,ioos:station:DISL:BSCA:1,2017-11-04T00:30:00Z,30.3288,-87.8293,0.0,0.0,0.0,99.0,'11111222,11111222,11144222' 
DISL,ioos:station:DISL:BSCA:1,2017-11-04T01:00:00Z,30.3288,-87.8293,0.0,0.0,0.0,99.0,'11111222,11111222,11144222' 
DISL,ioos:station:DISL:BSCA:1,2017-11-04T01:30:00Z,30.3288,-87.8293,0.0,0.0,0.0,99.0,'11111222,11111222,11144222' 
DISL,ioos:station:DISL:BSCA:1,2017-11-04T02:00:00Z,30.3288,-87.8293,0.0,0.0,0.0,99.0,'11111222,11111222,11144222' 
DISL,ioos:station:DISL:BSCA:1,2017-11-04T02:30:00Z,30.3288,-87.8293,0.0,0.0,0.0,99.0,'11111222,11111222,11144222' 
DISL,ioos:station:DISL:BSCA:1,2017-11-04T03:00:00Z,30.3288,-87.8293,0.0,0.0,0.0,99.0,'11111222,11111222,11144222' 
DISL,ioos:station:DISL:BSCA:1,2017-11-04T03:30:00Z,30.3288,-87.8293,0.0,0.0,0.0,99.0,'11111222,11111222,11144222' 
DISL,ioos:station:DISL:BSCA:1,2017-11-04T04:00:00Z,30.3288,-87.8293,0.0,0.0,0.0,99.0,'11111222,11111222,11144222' 
DISL,ioos:station:DISL:BSCA:1,2017-11-04T04:30:00Z,30.3288,-87.8293,0.0,0.0,0.0,99.0,'11111222,11111222,11144222' 
DISL,ioos:station:DISL:BSCA:1,2017-11-04T05:00:00Z,30.3288,-87.8293,0.0,0.0,0.0,99.0,'11111222,11111222,11144222' 
DISL,ioos:station:DISL:BSCA:1,2017-11-04T05:30:00Z,30.3288,-87.8293,0.0,0.0,0.0,99.0,'11111222,11111222,11144222' 
DISL,ioos:station:DISL:BSCA:1,2017-11-04T06:00:00Z,30.3288,-87.8293,0.0,0.0,38.0,99.0,'11111222,11111222,11144222' 
DISL,ioos:station:DISL:BSCA:1,2017-11-04T06:30:00Z,30.3288,-87.8293,0.0,0.3,12.0,99.0,'11111222,11111222,11144222' 
DISL,ioos:station:DISL:BSCA:1,2017-11-04T07:00:00Z,30.3288,-87.8293,0.0,0.0,0.0,99.0,'11111222,11111222,11144222' 
DISL,ioos:station:DISL:BSCA:1,2017-11-04T07:30:00Z,30.3288,-87.8293,0.0,0.0,0.0,99.0,'11111222,11111222,11144222' 
DISL,ioos:station:DISL:BSCA:1,2017-11-04T08:00:00Z,30.3288,-87.8293,0.0,0.0,0.0,99.0,'11111222,11111222,11144222' 
DISL,ioos:station:DISL:BSCA:1,2017-11-04T08:30:00Z,30.3288,-87.8293,0.0,0.0,0.0,99.0,'11111222,11111222,11144222' 
DISL,ioos:station:DISL:BSCA:1,2017-11-04T09:00:00Z,30.3288,-87.8293,0.0,0.0,0.0,99.0,'11111222,11111222,11144222' 
DISL,ioos:station:DISL:BSCA:1,2017-11-04T09:30:00Z,30.3288,-87.8293,0.0,0.0,0.0,99.0,'11111222,11111222,11144222' 
DISL,ioos:station:DISL:BSCA:1,2017-11-04T10:00:00Z,30.3288,-87.8293,0.0,1.6,357.0,99.0,'11111222,11111222,11144222' 
DISL,ioos:station:DISL:BSCA:1,2017-11-04T10:30:00Z,30.3288,-87.8293,0.0,0.2,359.0,99.0,'11111222,11111222,11144222' 
DISL,ioos:station:DISL:BSCA:1,2017-11-04T11:00:00Z,30.3288,-87.8293,0.0,0.0,16.0,99.0,'11111222,11111222,11144222' 
DISL,ioos:station:DISL:BSCA:1,2017-11-04T11:30:00Z,30.3288,-87.8293,0.0,2.4,16.0,99.0,'11111222,11111222,11144222' 
DISL,ioos:station:DISL:BSCA:1,2017-11-04T12:00:00Z,30.3288,-87.8293,0.0,0.2,16.0,99.0,'11111222,11111222,11144222' 
DISL,ioos:station:DISL:BSCA:1,2017-11-04T12:30:00Z,30.3288,-87.8293,0.0,1.5,23.0,99.0,'11111222,11111222,11144222' 
DISL,ioos:station:DISL:BSCA:1,2017-11-04T13:00:00Z,30.3288,-87.8293,0.0,0.0,69.0,99.0,'11111222,11111222,11144222' 
DISL,ioos:station:DISL:BSCA:1,2017-11-04T13:30:00Z,30.3288,-87.8293,0.0,1.1,98.0,99.0,'11111222,11111222,11144222' 
DISL,ioos:station:DISL:BSCA:1,2017-11-04T14:00:00Z,30.3288,-87.8293,0.0,1.2,109.0,99.0,'11111222,11111222,11144222' 
DISL,ioos:station:DISL:BSCA:1,2017-11-04T14:30:00Z,30.3288,-87.8293,0.0,1.8,162.0,99.0,'11111222,11111222,11144222' 
DISL,ioos:station:DISL:BSCA:1,2017-11-04T15:00:00Z,30.3288,-87.8293,0.0,1.4,172.0,99.0,'11111222,11111222,11144222' 
DISL,ioos:station:DISL:BSCA:1,2017-11-04T15:30:00Z,30.3288,-87.8293,0.0,0.0,155.0,99.0,'11111222,11111222,11144222' 
DISL,ioos:station:DISL:BSCA:1,2017-11-04T16:00:00Z,30.3288,-87.8293,0.0,0.0,0.0,99.0,'11111222,11111222,11144222' 
DISL,ioos:station:DISL:BSCA:1,2017-11-04T16:30:00Z,30.3288,-87.8293,0.0,0.1,216.0,99.0,'11111222,11111222,11144222' 
DISL,ioos:station:DISL:BSCA:1,2017-11-04T17:00:00Z,30.3288,-87.8293,0.0,0.4,221.0,99.0,'11111222,11111222,11144222' 
DISL,ioos:station:DISL:BSCA:1,2017-11-04T17:30:00Z,30.3288,-87.8293,0.0,0.0,0.0,99.0,'11111222,11111222,11144222' 
DISL,ioos:station:DISL:BSCA:1,2017-11-04T18:00:00Z,30.3288,-87.8293,0.0,0.0,0.0,99.0,'11111222,11111222,11144222' 
DISL,ioos:station:DISL:BSCA:1,2017-11-04T18:30:00Z,30.3288,-87.8293,0.0,0.0,0.0,99.0,'11111222,11111222,11144222' 
DISL,ioos:station:DISL:BSCA:1,2017-11-04T19:00:00Z,30.3288,-87.8293,0.0,0.0,0.0,99.0,'11111222,11111222,11144222' 
DISL,ioos:station:DISL:BSCA:1,2017-11-04T19:30:00Z,30.3288,-87.8293,0.0,0.0,0.0,99.0,'11111222,11111222,11144222' 
DISL,ioos:station:DISL:BSCA:1,2017-11-04T20:00:00Z,30.3288,-87.8293,0.0,0.0,0.0,99.0,'11111222,11111222,11144222' 
DISL,ioos:station:DISL:BSCA:1,2017-11-04T20:30:00Z,30.3288,-87.8293,0.0,0.0,0.0,99.0,'11111222,11111222,11144222' 
DISL,ioos:station:DISL:BSCA:1,2017-11-04T21:00:00Z,30.3288,-87.8293,0.0,0.0,0.0,99.0,'11111222,11111222,11144222' 
DISL,ioos:station:DISL:BSCA:1,2017-11-04T21:30:00Z,30.3288,-87.8293,0.0,0.0,0.0,99.0,'11111222,11111222,11144222' 
DISL,ioos:station:DISL:BSCA:1,2017-11-04T22:00:00Z,30.3288,-87.8293,0.0,0.0,0.0,99.0,'11111222,11111222,11144222' 
DISL,ioos:station:DISL:BSCA:1,2017-11-04T22:30:00Z,30.3288,-87.8293,0.0,0.0,174.0,99.0,'11111222,11111222,11144222' 
DISL,ioos:station:DISL:BSCA:1,2017-11-04T23:00:00Z,30.3288,-87.8293,0.0,2.7,180.0,99.0,'11111222,11111222,11144222' 
DISL,ioos:station:DISL:BSCA:1,2017-11-04T23:30:00Z,30.3288,-87.8293,0.0,2.1,182.0,99.0,'11111222,11111222,11144222' 
DISL,ioos:station:DISL:BSCA:1,2017-11-05T00:00:00Z,30.3288,-87.8293,0.0,1.8,179.0,99.0,'11111222,11111222,11144222' 
DISL,ioos:station:DISL:BSCA:1,2017-11-05T00:30:00Z,30.3288,-87.8293,0.0,1.7,180.0,99.0,'11111222,11111222,11144222' 
DISL,ioos:station:DISL:BSCA:1,2017-11-05T01:00:00Z,30.3288,-87.8293,0.0,1.6,181.0,99.0,'11111222,11111222,11144222' 
DISL,ioos:station:DISL:BSCA:1,2017-11-05T01:30:00Z,30.3288,-87.8293,0.0,1.8,182.0,99.0,'11111222,11111222,11144222' 
DISL,ioos:station:DISL:BSCA:1,2017-11-05T02:00:00Z,30.3288,-87.8293,0.0,2.0,184.0,99.0,'11111222,11111222,11144222' 
DISL,ioos:station:DISL:BSCA:1,2017-11-05T02:30:00Z,30.3288,-87.8293,0.0,2.0,186.0,99.0,'11111222,11111222,11144222' 
DISL,ioos:station:DISL:BSCA:1,2017-11-05T03:00:00Z,30.3288,-87.8293,0.0,1.8,181.0,99.0,'11111222,11111222,11144222' 
DISL,ioos:station:DISL:BSCA:1,2017-11-05T03:30:00Z,30.3288,-87.8293,0.0,1.2,184.0,99.0,'11111222,11111222,11144222' 
DISL,ioos:station:DISL:BSCA:1,2017-11-05T04:00:00Z,30.3288,-87.8293,0.0,1.1,186.0,99.0,'11111222,11111222,11144222' 
DISL,ioos:station:DISL:BSCA:1,2017-11-05T04:30:00Z,30.3288,-87.8293,0.0,1.0,188.0,99.0,'11111222,11111222,11144222' 
DISL,ioos:station:DISL:BSCA:1,2017-11-05T05:00:00Z,30.3288,-87.8293,0.0,0.5,188.0,99.0,'11111222,11111222,11144222' 
DISL,ioos:station:DISL:BSCA:1,2017-11-05T05:30:00Z,30.3288,-87.8293,0.0,0.0,0.0,99.0,'11111222,11111222,11144222' 
DISL,ioos:station:DISL:BSCA:1,2017-11-05T06:30:00Z,30.3288,-87.8293,0.0,0.0,0.0,99.0,'11111222,11111222,11144222' 
DISL,ioos:station:DISL:BSCA:1,2017-11-05T07:00:00Z,30.3288,-87.8293,0.0,0.7,176.0,99.0,'11111222,11111222,11144222' 